Weather History for KLWT - April, 2013

Change the Weather History Date:

Tuesday, April 30, 2013

  Actual Average Record
Temperature  
Mean Temperature 29 °F 45 °F  
Max Temperature 39 °F 58 °F 83 °F (1926)
Min Temperature 19 °F 33 °F 5 °F (1909)
Degree Days  
Heating Degree Days 36 20  
Month to date heating degree days 859 709  
Since 1 July heating degree days 7413 7507  
Cooling Degree Days 0 0  
Month to date cooling degree days 0 0  
Year to date cooling degree days 0 0  
Moisture  
Dew Point 21 °F    
Average Humidity 65    
Maximum Humidity 85    
Minimum Humidity 44    
Precipitation  
Precipitation T in 0.06 in 0.52 in (1951)
Month to date precipitation 1.23 1.41  
Year to date precipitation 3.36 3.41  
Snow  
Snow 0.00 in - - ()
Snow Depth 0.00 in    
Sea Level Pressure  
Sea Level Pressure 29.97 in    
Wind  
Wind Speed 10 mph (NW)    
Max Wind Speed 23 mph    
Max Gust Speed 29 mph    
Visibility 9 miles    
Events Snow    
T = Trace of Precipitation, MM = Missing Value Source: NWS Daily Summary

Daily Weather History Graph

Daily Weather History Graph

Search for Another Location

Airport or City:

Trip Planner

Search our weather history database for the weather conditions in past years. The results will help you decide how hot, cold, wet, or windy it might be!

Date:

Astronomy

Apr. 30, 2013 Rise Set
Actual Time 6:03 AM MDT 8:27 PM MDT
Civil Twilight 5:29 AM MDT 9:01 PM MDT
Nautical Twilight 4:47 AM MDT 9:44 PM MDT
Astronomical Twilight 3:59 AM MDT 10:32 PM MDT
Moon 12:57 AM MDT (4/30) 10:32 AM MDT (4/30)
Length of Visible Light 15h 32m
Length of Day
14h 24m
Waning Gibbous, 69% of the Moon is Illuminated
Apr 30
Waning Gibbous
May 2
Last Quarter
May 9
New
May 17
First Quarter
May 24
Full

Hourly Weather History & Observations

Time (MDT) Temp. Windchill Dew Point Humidity Pressure Visibility Wind Dir Wind Speed Gust Speed Precip Events Conditions
12:54 AM 30.9 °F 21.2 °F 24.1 °F 76% 29.77 in 10.0 mi WNW 12.7 mph - N/A   Mostly Cloudy
1:54 AM 30.0 °F 20.0 °F 23.0 °F 75% 29.78 in 10.0 mi WNW 12.7 mph - N/A   Mostly Cloudy
2:54 AM 28.9 °F 20.4 °F 23.0 °F 78% 29.79 in 10.0 mi WNW 9.2 mph - N/A   Scattered Clouds
3:54 AM 28.0 °F 19.3 °F 23.0 °F 81% 29.81 in 10.0 mi WNW 9.2 mph - N/A   Mostly Cloudy
4:54 AM 26.1 °F 16.2 °F 23.0 °F 88% 29.84 in 10.0 mi West 10.4 mph - N/A   Clear
5:54 AM 26.1 °F 19.4 °F 23.0 °F 88% 29.86 in 10.0 mi WNW 5.8 mph - N/A   Mostly Cloudy
6:14 AM 26.6 °F 18.2 °F 24.8 °F 93% 29.82 in 10.0 mi WNW 8.1 mph - N/A   Mostly Cloudy
6:49 AM 28.4 °F 18.5 °F 24.8 °F 86% 29.84 in 10.0 mi WNW 11.5 mph - N/A   Overcast
6:54 AM 28.9 °F 19.2 °F 25.0 °F 85% 29.89 in 10.0 mi WNW 11.5 mph - N/A   Overcast
7:01 AM 28.4 °F 18.5 °F 24.8 °F 86% 29.85 in 10.0 mi WNW 11.5 mph - N/A   Mostly Cloudy
7:38 AM 28.4 °F 19.7 °F 23.0 °F 80% 29.87 in 10.0 mi WNW 9.2 mph - N/A   Overcast
7:46 AM 28.4 °F 21.2 °F 23.0 °F 80% 29.87 in 10.0 mi NW 6.9 mph - N/A   Overcast
7:54 AM 28.9 °F 19.8 °F 23.0 °F 78% 29.93 in 10.0 mi NW 10.4 mph - N/A   Overcast
8:01 AM 28.4 °F 19.7 °F 23.0 °F 80% 29.87 in 10.0 mi NW 9.2 mph - N/A   Overcast
8:08 AM 28.4 °F 21.2 °F 23.0 °F 80% 29.87 in 9.0 mi NW 6.9 mph - 0.00 in Snow Light Snow
8:37 AM 30.2 °F 20.2 °F 21.2 °F 69% 29.88 in 10.0 mi WNW 12.7 mph - 0.00 in Snow Light Snow
8:54 AM 30.0 °F 20.5 °F 19.9 °F 66% 29.95 in 10.0 mi NW 11.5 mph 18.4 mph 0.00 in   Overcast
9:03 AM 30.2 °F 20.8 °F 19.4 °F 64% 29.89 in 10.0 mi NW 11.5 mph 19.6 mph N/A   Overcast
9:51 AM 32.0 °F 22.5 °F 21.2 °F 64% 29.90 in 10.0 mi NNW 12.7 mph 17.3 mph N/A   Overcast
9:54 AM 32.0 °F 22.5 °F 21.0 °F 64% 29.96 in 10.0 mi NW 12.7 mph 17.3 mph N/A   Overcast
10:08 AM 32.0 °F 22.1 °F 21.2 °F 64% 29.90 in 6.0 mi NW 13.8 mph 24.2 mph 0.00 in Snow Light Snow
10:48 AM 30.2 °F 19.8 °F 24.8 °F 80% 29.93 in 1.8 mi NW 13.8 mph 24.2 mph 0.00 in Snow Light Snow
10:54 AM 30.0 °F 18.7 °F 25.0 °F 82% 30.01 in 1.5 mi NW 16.1 mph 21.9 mph 0.00 in Snow Light Snow
11:16 AM 30.2 °F 20.2 °F 26.6 °F 86% 29.94 in 3.0 mi NNW 12.7 mph 23.0 mph 0.00 in Snow Light Snow
11:54 AM 32.0 °F 21.2 °F 21.0 °F 64% 30.03 in 10.0 mi NW 16.1 mph 24.2 mph 0.00 in   Overcast
12:16 PM 35.6 °F 25.2 °F 19.4 °F 52% 29.96 in 10.0 mi NNW 18.4 mph 26.5 mph N/A   Overcast
12:54 PM 33.1 °F 21.9 °F 19.9 °F 59% 30.05 in 10.0 mi NNW 18.4 mph 24.2 mph N/A   Overcast
1:54 PM 34.0 °F 24.2 °F 19.9 °F 56% 30.07 in 10.0 mi NW 15.0 mph 21.9 mph N/A   Overcast
2:54 PM 36.0 °F 30.3 °F 21.0 °F 55% 30.09 in 10.0 mi NNW 6.9 mph 19.6 mph N/A   Overcast
3:54 PM 36.0 °F 25.6 °F 19.0 °F 50% 30.11 in 10.0 mi North 18.4 mph 21.9 mph N/A   Mostly Cloudy
4:54 PM 35.1 °F 25.2 °F 17.1 °F 48% 30.14 in 9.0 mi North 16.1 mph 24.2 mph 0.00 in   Overcast
5:54 PM 37.0 °F 29.8 °F 17.1 °F 44% 30.17 in 10.0 mi NNW 10.4 mph - N/A   Overcast
6:54 PM 34.0 °F 26.0 °F 16.0 °F 48% 30.19 in 10.0 mi NNW 10.4 mph 17.3 mph N/A   Partly Cloudy
8:54 PM 28.9 °F 22.8 °F 16.0 °F 58% 30.27 in 10.0 mi NNW 5.8 mph - N/A   Clear
9:54 PM 24.1 °F 15.2 °F 15.1 °F 69% 30.32 in 10.0 mi North 8.1 mph - N/A   Clear
11:54 PM 21.0 °F 14.6 °F 15.1 °F 78% 30.37 in 10.0 mi West 4.6 mph - N/A   Clear